Regional Weather Roundup
Issued by NWS New Orleans/Baton Rouge, LA

Home | Current Version | Previous Version | Graphics & Text | Print | Product List | Glossary On
Versions: 1 2 3 4 5 6 7 8 9 10 11 12 13 14 15 16 17 18 19 20 21 22 23 24 25 26 27 28 29 30 31 32 33 34 35 36 37 38 39 40 41 42 43 44 45 46 47 48 49 50
141
ASUS44 KLIX 292105
RWRLIX
NEW ORLEANS REGIONAL WEATHER ROUNDUP
NATIONAL WEATHER SERVICE NEW ORLEANS LA
400 PM CDT WED OCT 29 2014

NOTE: "FAIR" INDICATES FEW OR NO CLOUDS BELOW 12,000 FEET WITH NO
      SIGNIFICANT WEATHER AND/OR OBSTRUCTIONS TO VISIBILITY.
      SKY/WX - SKY CONDITION AND SIGNIFICANT WEATHER.
      TMP - AIR TEMPERATURE.     DP    - DEWPOINT TEMPERATURE.
      RH  - RELATIVE HUMIDITY.   PRES  - PRESSURE.
      HI  - HEAT INDEX.          WCI   - WIND CHILL INDEX.

*  THESE STATIONS ARE NOT NWS OR FAA STATIONS AND ARE NOT UNDER
   NWS QUALITY CONTROL.

LAZ038-040-048-061>063-065>067-069-292200-
SOUTHEAST LOUISIANA

CITY           SKY/WX    TMP DP  RH WIND       PRES   REMARKS
N.O. AUDUBON     N/A     85  67  55 MISG        N/A
N.O. INTL ARPT MOSUNNY   80  63  55 NW7       30.00F
N.O. LAKEFRONT MOSUNNY   80  67  64 W3        30.01F
N.O. DOWNTOWN*   N/A     84  63  48 N6        30.01F
SLIDELL        MOSUNNY   82  64  54 W3        29.99F
BATON ROUGE    PTSUNNY   78  67  68 NW10      30.03R
BOOTHVILLE     SUNNY     80  67  64 NW7       30.02F
BELLE CHASSE   MOSUNNY   84  61  45 VRB5      30.00F
BOGALUSA*        N/A     79  66  65 N9        30.03S
NEW ROADS*     MOCLDY    73  64  73 NW9       30.06S
GONZALES*        N/A     82  66  58 NW8       30.00F
HAMMOND*       PTSUNNY   79  66  65 N7        30.03F
HOUMA*         MOSUNNY   84  63  48 NW7       30.00F
PORT FOURCHON* CLOUDY    81  68  65 SE7       30.04F

$$

MSZ070-080>082-292200-
SOUTHERN MISSISSIPPI

CITY           SKY/WX    TMP DP  RH WIND       PRES   REMARKS
MCCOMB         PTSUNNY   75  63  66 N12       30.04S
GULFPORT       PTSUNNY   80  65  59 N10       29.99S
BILOXI         MOSUNNY   80  69  69 SW8       29.99F
PASCAGOULA     LGT RAIN  77  70  79 W6        29.99F
STENNIS ARPT*  MOSUNNY   82  59  44 NW6       30.00F

$$

COASTAL OBSERVATIONS
LAKE AND NEARSHORE STATIONS

STATION/POSITION TIME  TEMP    WIND        PRES    WAVE
                       AIR SEA DIR/SP/G            HT/PER
                 (UTC) (F)     (DEG/KT/KT) (MB)    (FT/S)
PASCAGOULA       2100   78     210/  9/ 10 1015.1
WAVELAND YACHT   2100   77     220/  5/  7 1015.2
GRAND ISLE       2100   82 77   10/  5/  6 1016.9
SOUTHWEST PASS   2100   87 79              1016.7
NEW CANAL        2100      72  290/  1/  3 1016.5
SHELL BEACH      2100   78 71  320/  5/  6 1015.9

OFFSHORE STATIONS

STATION/POSITION TIME  TEMP    WIND        PRES    WAVE
                       AIR SEA DIR/SP/G            HT/PER
                 (UTC) (F)     (DEG/KT/KT) (MB)    (FT/S)
64 S DAUPHIN ISL 2049   77 80   10/  8/  8 1016.7    2/ 6

$$




USA.gov is the U.S. government's official web portal to all federal, state and local government web resources and services.